H1 CPF 2 NER 2023 7 17 9 198 01 glonass133 H2 1403201 9133 40001 2023 7 17 0 0 0 2023 7 20 23 45 0 900 1 1 0 0 0 1 H9 10 0 60142 0.00000 0 -6285452.975 9119762.216 22974447.372 10 0 60142 900.00000 0 -7978291.155 6818419.723 23242874.356 10 0 60142 1800.00000 0 -9844141.778 4647634.383 23059642.381 10 0 60142 2700.00000 0 -11834068.228 2659805.507 22428185.627 10 0 60142 3600.00000 0 -13890983.608 897613.526 21360657.247 10 0 60142 4500.00000 0 -15951898.132 -607554.600 19877702.793 10 0 60142 5400.00000 0 -17950433.795 -1836697.144 18008067.334 10 0 60142 6300.00000 0 -19819501.693 -2783761.093 15788043.041 10 0 60142 7200.00000 0 -21494030.000 -3455654.012 13260767.277 10 0 60142 8100.00000 0 -22913628.033 -3871704.271 10475384.337 10 0 60142 9000.00000 0 -24025074.021 -4062593.013 7486086.965 10 0 60142 9900.00000 0 -24784521.308 -4068803.795 4351056.471 10 0 60142 10800.00000 0 -25159329.366 -3938656.501 1131322.616 10 0 60142 11700.00000 0 -25129441.813 -3726009.993 -2110433.739 10 0 60142 12600.00000 0 -24688252.813 -3487732.215 -5311110.800 10 0 60142 13500.00000 0 -23842925.121 -3281046.442 -8408423.702 10 0 60142 14400.00000 0 -22614146.359 -3160867.553 -11342124.850 10 0 60142 15300.00000 0 -21035334.164 -3177242.480 -14055181.944 10 0 60142 16200.00000 0 -19151324.206 -3373004.302 -16494890.061 10 0 60142 17100.00000 0 -17016596.878 -3781739.976 -18613895.854 10 0 60142 18000.00000 0 -14693117.791 -4426158.090 -20371113.920 10 0 60142 18900.00000 0 -12247883.113 -5316925.732 -21732518.013 10 0 60142 19800.00000 0 -9750272.685 -6452023.503 -22671792.487 10 0 60142 20700.00000 0 -7269321.441 -7816645.753 -23170832.265 10 0 60142 21600.00000 0 -4871022.484 -9383650.106 -23220082.768 10 0 60142 22500.00000 0 -2615773.234 -11114537.469 -22818714.270 10 0 60142 23400.00000 0 -556069.781 -12960921.581 -21974628.252 10 0 60142 24300.00000 0 1265456.196 -14866426.946 -20704296.380 10 0 60142 25200.00000 0 2817578.059 -16768936.332 -19032435.705 10 0 60142 26100.00000 0 4081530.064 -18603094.531 -16991526.569 10 0 60142 27000.00000 0 5051536.362 -20302964.549 -14621182.516 10 0 60142 27900.00000 0 5734792.820 -21804726.042 -11967384.105 10 0 60142 28800.00000 0 6150904.020 -23049303.932 -9081591.078 10 0 60142 29700.00000 0 6330800.328 -23984817.962 -6019749.567 10 0 60142 30600.00000 0 6315181.490 -24568751.198 -2841213.049 10 0 60142 31500.00000 0 6152552.913 -24769747.004 392402.494 10 0 60142 32400.00000 0 5896937.701 -24568959.287 3618407.456 10 0 60142 33300.00000 0 5605361.141 -23960899.334 6774248.822 10 0 60142 34200.00000 0 5335213.798 -22953743.348 9798718.512 10 0 60142 35100.00000 0 5141604.560 -21569087.232 12633136.668 10 0 60142 36000.00000 0 5074815.424 -19841158.079 15222487.144 10 0 60142 36900.00000 0 5177965.621 -17815514.486 17516483.359 10 0 60142 37800.00000 0 5484984.029 -15547288.950 19470544.016 10 0 60142 38700.00000 0 6018975.977 -13099044.722 21046659.949 10 0 60142 39600.00000 0 6791054.201 -10538335.452 22214135.333 10 0 60142 40500.00000 0 7799684.365 -7935068.382 22950188.903 10 0 60142 41400.00000 0 9030574.165 -5358779.999 23240403.355 10 0 60142 42300.00000 0 10457112.355 -2875936.871 23079013.885 10 0 60142 43200.00000 0 12041340.991 -547373.431 22469029.769 10 0 60142 44100.00000 0 13735421.864 1574027.031 21422185.891 10 0 60142 45000.00000 0 15483537.079 3445311.819 19958724.397 10 0 60142 45900.00000 0 17224145.320 5035016.395 18107009.775 10 0 60142 46800.00000 0 18892499.954 6324235.181 15902984.001 10 0 60142 47700.00000 0 20423323.657 7307161.074 13389471.614 10 0 60142 48600.00000 0 21753527.119 7991071.451 10615347.715 10 0 60142 49500.00000 0 22824857.095 8395761.843 7634584.886 10 0 60142 50400.00000 0 23586361.590 8552451.960 4505197.716 10 0 60142 51300.00000 0 23996567.449 8502211.272 1288106.021 10 0 60142 52200.00000 0 24025277.635 8293971.947 -1954060.320 10 0 60142 53100.00000 0 23654911.582 7982214.651 -5158190.552 10 0 60142 54000.00000 0 22881331.491 7624426.698 -8261931.145 10 0 60142 54900.00000 0 21714119.391 7278441.722 -11204907.589 10 0 60142 55800.00000 0 20176293.244 6999774.903 -13929905.038 10 0 60142 56700.00000 0 18303474.282 6839067.723 -16383984.146 10 0 60142 57600.00000 0 16142540.929 6839751.177 -18519510.016 10 0 60142 58500.00000 0 13749826.335 7036026.749 -20295074.255 10 0 60142 59400.00000 0 11188935.414 7451250.539 -21676292.629 10 0 60142 60300.00000 0 8528272.956 8096788.613 -22636463.586 10 0 60142 61200.00000 0 5838386.009 8971391.499 -23157075.790 10 0 60142 62100.00000 0 3189230.960 10061113.780 -23228155.938 10 0 60142 63000.00000 0 647478.329 11339781.873 -22848451.186 10 0 60142 63900.00000 0 -1726033.650 12769990.165 -22025443.615 10 0 60142 64800.00000 0 -3878592.273 14304583.762 -20775197.220 10 0 60142 65700.00000 0 -5767556.738 15888565.939 -19122040.880 10 0 60142 66600.00000 0 -7361878.513 17461350.852 -17098093.653 10 0 60142 67500.00000 0 -8643134.281 18959267.733 -14742641.582 10 0 60142 68400.00000 0 -9606030.251 20318212.411 -12101377.741 10 0 60142 69300.00000 0 -10258358.425 21476335.765 -9225519.899 10 0 60142 70200.00000 0 -10620408.144 22376657.084 -6170822.351 10 0 60142 71100.00000 0 -10723858.757 22969493.287 -2996500.536 10 0 60142 72000.00000 0 -10610200.779 23214602.432 235911.168 10 0 60142 72900.00000 0 -10328752.563 23082951.656 3463746.748 10 0 60142 73800.00000 0 -9934356.316 22558035.202 6624418.328 10 0 60142 74700.00000 0 -9484850.716 21636686.820 9656625.161 10 0 60142 75600.00000 0 -9038426.764 20329351.740 12501538.658 10 0 60142 76500.00000 0 -8650978.358 18659805.954 15103940.699 10 0 60142 77400.00000 0 -8373559.394 16664333.412 17413293.286 10 0 60142 78300.00000 0 -8250054.756 14390394.342 19384719.022 10 0 60142 79200.00000 0 -8315163.674 11894838.961 20979873.555 10 0 60142 80100.00000 0 -8592780.978 9241739.814 22167693.149 10 0 60142 81000.00000 0 -9094845.177 6499931.800 22925002.886 10 0 60142 81900.00000 0 -9820702.922 3740361.125 23236973.590 10 0 60142 82800.00000 0 -10757017.844 1033352.555 23097418.264 10 0 60142 83700.00000 0 -11878229.041 -1554092.182 22508921.802 10 0 60142 84600.00000 0 -13147541.439 -3960853.055 21482800.771 10 0 60142 85500.00000 0 -14518407.805 -6134001.310 20038893.231 10 0 60143 0.00000 0 -15936441.236 -8030763.883 18205181.963 10 0 60143 900.00000 0 -17341679.396 -9620061.842 16017256.507 10 0 60143 1800.00000 0 -18671103.865 -10883556.269 13517626.258 10 0 60143 2700.00000 0 -19861311.188 -11816161.462 10754894.192 10 0 60143 3600.00000 0 -20851220.905 -12426001.778 7782809.417 10 0 60143 4500.00000 0 -21584706.470 -12733815.663 4659216.238 10 0 60143 5400.00000 0 -22013037.030 -12771832.707 1444920.814 10 0 60143 6300.00000 0 -22097025.984 -12582172.308 -1797501.734 10 0 60143 7200.00000 0 -21808794.548 -12214832.939 -5004935.440 10 0 60143 8100.00000 0 -21133075.024 -11725358.607 -8114961.768 10 0 60143 9000.00000 0 -20067998.093 -11172282.746 -11067082.793 10 0 60143 9900.00000 0 -18625330.542 -10614459.202 -13803904.401 10 0 60143 10800.00000 0 -16830153.301 -10108394.444 -16272255.792 10 0 60143 11700.00000 0 -14719993.412 -9705694.771 -18424223.097 10 0 60143 12600.00000 0 -12343446.638 -9450736.953 -20218077.001 10 0 60143 13500.00000 0 -9758348.678 -9378660.803 -21619076.764 10 0 60143 14400.00000 0 -7029571.644 -9513768.179 -22600135.752 10 0 60143 15300.00000 0 -4226537.805 -9868395.404 -23142336.496 10 0 60143 16200.00000 0 -1420553.903 -10442305.964 -23235286.421 10 0 60143 17100.00000 0 1317923.642 -11222628.341 -22877308.392 10 0 60143 18000.00000 0 3921979.842 -12184341.058 -22075463.375 10 0 60143 18900.00000 0 6330778.053 -13291284.151 -20845405.530 10 0 60143 19800.00000 0 8491838.770 -14497654.479 -19211073.046 10 0 60143 20700.00000 0 10362967.290 -15749922.200 -17204220.913 10 0 60143 21600.00000 0 11913751.844 -16989088.320 -14863804.674 10 0 60143 22500.00000 0 13126571.578 -18153189.081 -12235226.785 10 0 60143 23400.00000 0 13997074.021 -19179942.608 -9369459.815 10 0 60143 24300.00000 0 14534103.592 -20009427.291 -6322062.962 10 0 60143 25200.00000 0 14759085.421 -20586679.891 -3152110.399 10 0 60143 26100.00000 0 14704891.323 -20864104.539 78948.210 10 0 60143 27000.00000 0 14414236.258 -20803591.529 3308473.392 10 0 60143 27900.00000 0 13937673.183 -20378256.713 6473845.100 10 0 60143 28800.00000 0 13331270.924 -19573728.020 9513672.294 10 0 60143 29700.00000 0 12654072.927 -18388924.344 12368979.688 10 0 60143 30600.00000 0 11965443.927 -16836293.158 14984348.823 10 0 60143 31500.00000 0 11322416.273 -14941495.661 17308991.537 10 0 60143 32400.00000 0 10777147.635 -12742551.257 19297735.184 10 0 60143 33300.00000 0 10374597.259 -10288475.539 20911900.703 10 0 60143 34200.00000 0 10150518.784 -7637467.130 22120056.547 10 0 60143 35100.00000 0 10129854.548 -4854717.380 22898633.911 10 0 60143 36000.00000 0 10325599.511 -2009932.674 23232391.195 10 0 60143 36900.00000 0 10738183.471 825328.762 23114718.368 10 0 60143 37800.00000 0 11355398.545 3580395.896 22547774.862 10 0 60143 38700.00000 0 12152876.120 6188186.643 21542457.634 10 0 60143 39600.00000 0 13095094.362 8587760.460 20118199.202 10 0 60143 40500.00000 0 14136874.932 10726615.847 18302598.684 10 0 60143 41400.00000 0 15225306.789 12562637.172 16130892.133 10 0 60143 42300.00000 0 16302016.533 14065609.608 13645271.695 10 0 60143 43200.00000 0 17305689.789 15218238.966 10894066.308 10 0 60143 44100.00000 0 18174737.010 16016633.911 7930799.612 10 0 60143 45000.00000 0 18849990.563 16470230.770 4813143.535 10 0 60143 45900.00000 0 19277318.261 16601164.783 1601788.424 10 0 60143 46800.00000 0 19410041.812 16443115.278 -1640747.546 10 0 60143 47700.00000 0 19211056.796 16039674.716 -4851345.373 10 0 60143 48600.00000 0 18654563.510 15442311.944 -7967523.619 10 0 60143 49500.00000 0 17727334.615 14708017.225 -10928662.920 10 0 60143 50400.00000 0 16429465.414 13896730.110 -13677191.714 10 0 60143 51300.00000 0 14774574.700 13068660.183 -16159709.377 10 0 60143 52200.00000 0 12789447.499 12281614.929 -18328024.517 10 0 60143 53100.00000 0 10513134.747 11588448.214 -20140088.194 10 0 60143 54000.00000 0 7995547.682 11034737.263 -21560804.326 10 0 60143 54900.00000 0 5295605.832 10656785.871 -22562702.233 10 0 60143 55800.00000 0 2479015.915 10480037.396 -23126459.240 10 0 60143 56700.00000 0 -384226.040 10517963.489 -23241264.258 10 0 60143 57600.00000 0 -3222505.907 10771474.334 -22905016.410 10 0 60143 58500.00000 0 -5965325.738 11228874.220 -22124355.809 10 0 60143 59400.00000 0 -8545988.609 11866363.462 -20914526.701 10 0 60143 60300.00000 0 -10904123.873 12649064.984 -19299076.115 10 0 60143 61200.00000 0 -12987949.428 13532532.058 -17309394.113 10 0 60143 62100.00000 0 -14756178.566 14464673.804 -14984104.518 10 0 60143 63000.00000 0 -16179493.743 15388017.705 -12368317.623 10 0 60143 63900.00000 0 -17241527.400 16242214.360 -9512759.000 10 0 60143 64800.00000 0 -17939310.368 16966679.597 -6472790.751 10 0 60143 65700.00000 0 -18283170.370 17503263.209 -3307343.632 10 0 60143 66600.00000 0 -18296085.877 17798832.354 -77780.315 10 0 60143 67500.00000 0 -18012523.182 17807661.052 3153288.643 10 0 60143 68400.00000 0 -17476806.050 17493525.135 6323213.490 10 0 60143 69300.00000 0 -16741086.751 16831414.158 9370515.461 10 0 60143 70200.00000 0 -15863003.903 15808787.639 12236075.188 10 0 60143 71100.00000 0 -14903125.633 14426321.881 14864276.535 10 0 60143 72000.00000 0 -13922285.517 12698114.806 17204083.818 10 0 60143 72900.00000 0 -12978923.215 10651338.736 19210031.726 10 0 60143 73800.00000 0 -12126541.537 8325353.967 20843108.925 10 0 60143 74700.00000 0 -11411386.827 5770318.440 22071518.296 10 0 60143 75600.00000 0 -10870450.264 3045349.715 22871299.109 10 0 60143 76500.00000 0 -10529874.329 216314.113 23226798.959 10 0 60143 77400.00000 0 -10403831.836 -2646666.451 23130986.000 10 0 60143 78300.00000 0 -10493925.258 -5471887.551 22585594.963 10 0 60143 79200.00000 0 -10789132.320 -8188805.131 21601103.452 10 0 60143 80100.00000 0 -11266300.949 -10730734.749 20196538.155 10 0 60143 81000.00000 0 -11891173.554 -13037395.301 18399113.876 10 0 60143 81900.00000 0 -12619898.141 -15057191.419 16243711.468 10 0 60143 82800.00000 0 -13400963.009 -16749139.305 13772204.090 10 0 60143 83700.00000 0 -14177473.556 -18084355.505 11032644.305 10 0 60143 84600.00000 0 -14889674.841 -19047046.285 8078327.559 10 0 60143 85500.00000 0 -15477612.728 -19634956.268 4966750.394 10 0 60144 0.00000 0 -15883820.193 -19859257.873 1758484.385 10 0 60144 900.00000 0 -16055914.204 -19743886.961 -1484013.208 10 0 60144 1800.00000 0 -15948991.582 -19324353.438 -4697623.553 10 0 60144 2700.00000 0 -15527721.968 -18646078.632 -7819805.839 10 0 60144 3600.00000 0 -14768047.677 -17762330.661 -10789822.782 10 0 60144 4500.00000 0 -13658417.986 -16731846.617 -13549928.796 10 0 60144 5400.00000 0 -12200505.000 -15616243.268 -16046496.693 10 0 60144 6300.00000 0 -10409370.529 -14477326.740 -18231060.541 10 0 60144 7200.00000 0 -8313076.699 -13374415.381 -20061254.373 10 0 60144 8100.00000 0 -5951756.547 -12361789.050 -21501628.850 10 0 60144 9000.00000 0 -3376183.434 -11486372.052 -22524330.771 10 0 60144 9900.00000 0 -645898.981 -10785746.715 -23109633.126 10 0 60144 10800.00000 0 2173022.677 -10286580.154 -23246306.537 10 0 60144 11700.00000 0 5010481.642 -10003529.164 -22931825.985 10 0 60144 12600.00000 0 7795026.470 -9938667.950 -22172409.761 10 0 60144 13500.00000 0 10456585.638 -10081461.465 -20982890.725 10 0 60144 14400.00000 0 12929144.003 -10409284.374 -19386422.838 10 0 60144 15300.00000 0 15153254.351 -10888463.004 -17414028.937 10 0 60144 16200.00000 0 17078281.119 -11475795.911 -15103998.466 10 0 60144 17100.00000 0 18664284.427 -12120488.916 -12501146.582 10 0 60144 18000.00000 0 19883467.367 -12766423.165 -9655948.596 10 0 60144 18900.00000 0 20721127.531 -13354660.964 -6623566.018 10 0 60144 19800.00000 0 21176074.188 -13826084.136 -3462782.544 10 0 60144 20700.00000 0 21260494.632 -14124054.009 -234870.159 10 0 60144 21600.00000 0 20999276.015 -14196981.156 2997593.110 10 0 60144 22500.00000 0 20428811.620 -14000696.568 6171931.233 10 0 60144 23400.00000 0 19595341.948 -13500524.153 9226580.809 10 0 60144 24300.00000 0 18552900.389 -12672966.732 12102281.079 10 0 60144 25200.00000 0 17360949.693 -11506933.772 14743220.443 10 0 60144 26100.00000 0 16081808.383 -10004458.067 17098117.411 10 0 60144 27000.00000 0 14777974.948 -8180869.875 19121215.211 10 0 60144 27900.00000 0 13509461.930 -6064419.471 20773170.966 10 0 60144 28800.00000 0 12331251.608 -3695362.062 22021822.258 10 0 60144 29700.00000 0 11290979.899 -1124541.372 22842816.290 10 0 60144 30600.00000 0 10426945.619 1588470.991 23220089.325 10 0 60144 31500.00000 0 9766528.750 4377604.598 23146186.818 10 0 60144 32400.00000 0 9325084.321 7172796.474 22622417.598 10 0 60144 33300.00000 0 9105358.716 9902671.592 21658838.422 10 0 60144 34200.00000 0 9097453.376 12497286.924 20274068.417 10 0 60144 35100.00000 0 9279337.875 14890825.389 18494936.127 10 0 60144 36000.00000 0 9617891.190 17024127.727 16355965.097 10 0 60144 36900.00000 0 10070427.523 18846956.615 13898707.251 10 0 60144 37800.00000 0 10586642.342 20319898.277 11170936.420 10 0 60144 38700.00000 0 11110896.166 21415821.811 8225717.421 10 0 60144 39600.00000 0 11584738.977 22120834.876 5120368.905 10 0 60144 40500.00000 0 11949567.556 22434695.720 1915340.586 10 0 60144 41400.00000 0 12149302.152 22370664.531 -1326972.524 10 0 60144 42300.00000 0 12132967.813 21954801.006 -4543454.725 10 0 60144 43200.00000 0 11857069.826 21224738.754 -7671508.081 10 0 60144 44100.00000 0 11287661.410 20227989.333 -10650279.417 10 0 60144 45000.00000 0 10402015.176 19019848.868 -13421850.927 10 0 60144 45900.00000 0 9189826.829 17660996.795 -15932370.392 10 0 60144 46800.00000 0 7653899.725 16214889.179 -18133098.642 10 0 60144 47700.00000 0 5810281.038 14745057.284 -19981353.759 10 0 60144 48600.00000 0 3687843.548 13312425.599 -21441334.071 10 0 60144 49500.00000 0 1327330.409 11972762.104 -22484804.597 10 0 60144 50400.00000 0 -1220097.288 10774367.463 -23091634.590 10 0 60144 51300.00000 0 -3894749.764 9756099.227 -23250176.806 10 0 60144 52200.00000 0 -6630656.276 8945812.692 -22957482.265 10 0 60144 53100.00000 0 -9358078.323 8359282.324 -22219347.344 10 0 60144 54000.00000 0 -12006184.617 7999647.414 -21050193.072 10 0 60144 54900.00000 0 -14505777.691 7857403.702 -19472779.533 10 0 60144 55800.00000 0 -16791959.911 7910940.000 -17517761.164 10 0 60144 56700.00000 0 -18806629.381 8127596.229 -15223091.544 10 0 60144 57600.00000 0 -20500703.183 8465197.670 -12633288.942 10 0 60144 58500.00000 0 -21835976.603 8874000.461 -9798576.470 10 0 60144 59400.00000 0 -22786542.021 9298966.289 -6773912.995 10 0 60144 60300.00000 0 -23339709.223 9682270.493 -3617933.022 10 0 60144 61200.00000 0 -23496389.490 9965937.972 -391815.672 10 0 60144 62100.00000 0 -23270928.010 10094495.884 2841895.794 10 0 60144 63000.00000 0 -22690392.055 10017531.286 6020501.339 10 0 60144 63900.00000 0 -21793344.948 9692045.708 9082355.275 10 0 60144 64800.00000 0 -20628157.297 9084507.013 11968057.842 10 0 60144 65700.00000 0 -19250926.190 8172511.439 14621604.396 10 0 60144 66600.00000 0 -17723089.405 6945984.872 16991470.031 10 0 60144 67500.00000 0 -16108834.354 5407871.533 19031608.829 10 0 60144 68400.00000 0 -14472410.004 3574279.601 20702348.519 10 0 60144 69300.00000 0 -12875454.083 1474075.787 21971163.316 10 0 60144 70200.00000 0 -11374447.163 -852056.123 22813309.997 10 0 60144 71100.00000 0 -10018400.008 -3353055.507 23212314.801 10 0 60144 72000.00000 0 -8846870.889 -5969365.782 23160301.430 10 0 60144 72900.00000 0 -7888395.853 -8635179.310 22658153.360 10 0 60144 73800.00000 0 -7159397.807 -11280954.346 21715506.646 10 0 60144 74700.00000 0 -6663620.308 -13836100.311 20350572.575 10 0 60144 75600.00000 0 -6392109.999 -16231720.304 18589792.718 10 0 60144 76500.00000 0 -6323748.588 -18403296.864 16467332.179 10 0 60144 77400.00000 0 -6426311.995 -20293208.915 14024420.101 10 0 60144 78300.00000 0 -6658011.910 -21852974.470 11308549.668 10 0 60144 79200.00000 0 -6969454.289 -23045124.877 8372552.830 10 0 60144 80100.00000 0 -7305931.392 -23844631.602 5273567.844 10 0 60144 81000.00000 0 -7609949.466 -24239825.434 2071920.143 10 0 60144 81900.00000 0 -7823883.880 -24232769.371 -1170060.971 10 0 60144 82800.00000 0 -7892647.933 -23839069.791 -4389265.660 10 0 60144 83700.00000 0 -7766260.866 -23087134.423 -7523041.971 10 0 60144 84600.00000 0 -7402204.958 -22016909.283 -10510424.033 10 0 60144 85500.00000 0 -6767470.735 -20678148.921 -13293325.007 10 0 60145 0.00000 0 -5840202.875 -19128294.187 -15817670.576 10 0 60145 900.00000 0 -4610876.003 -17430047.199 -18034451.774 10 0 60145 1800.00000 0 -3082951.567 -15648748.581 -19900673.225 10 0 60145 2700.00000 0 -1272986.176 -13849665.099 -21380183.272 10 0 60145 3600.00000 0 789812.235 -12095303.749 -22444367.058 10 0 60145 4500.00000 0 3064562.416 -10442863.900 -23072691.472 10 0 60145 5400.00000 0 5500181.252 -8941933.581 -23253092.219 10 0 60145 6300.00000 0 8037287.607 -7632525.173 -22982196.635 10 0 60145 7200.00000 0 10610459.643 -6543531.226 -22265378.912 10 0 60145 8100.00000 0 13150752.352 -5691663.280 -21116647.505 10 0 60145 9000.00000 0 15588371.385 -5080916.361 -19558367.412 10 0 60145 9900.00000 0 17855392.951 -4702579.901 -17620823.016 10 0 60145 10800.00000 0 19888417.684 -4535793.118 -15341629.933 10 0 60145 11700.00000 0 21631049.185 -4548620.368 -12765007.015 10 0 60145 12600.00000 0 23036094.999 -4699600.388 -9940922.233 10 0 60145 13500.00000 0 24067399.303 -4939703.707 -6924128.486 10 0 60145 14400.00000 0 24701231.607 -5214615.484 -3773107.477 10 0 60145 15300.00000 0 24927174.147 -5467247.487 -548941.663 10 0 60145 16200.00000 0 24748471.297 -5640373.270 2685864.293 10 0 60145 17100.00000 0 24181826.659 -5679275.364 5868590.095 10 0 60145 18000.00000 0 23256656.397 -5534292.729 8937511.255 10 0 60145 18900.00000 0 22013830.023 -5163160.726 11833092.156 10 0 60145 19800.00000 0 20503951.103 -4533044.479 14499137.807 10 0 60145 20700.00000 0 18785249.578 -3622179.153 16883882.112 10 0 60145 21600.00000 0 16921173.495 -2421047.049 18940991.721 10 0 60145 22500.00000 0 14977780.440 -933040.601 20630466.214 10 0 60145 23400.00000 0 13021037.306 825418.197 21919417.209 10 0 60145 24300.00000 0 11114140.811 2825308.886 22782711.390 10 0 60145 25200.00000 0 9314970.340 5025978.123 23203464.880 10 0 60145 26100.00000 0 7673779.215 7376601.441 23173379.127 10 0 60145 27000.00000 0 6231220.688 9818082.088 22692911.349 10 0 60145 27900.00000 0 5016790.978 12285309.442 21771275.605 10 0 60145 28800.00000 0 4047754.524 14709684.144 20426273.688 10 0 60145 29700.00000 0 3328596.374 17021805.603 18683958.226 10 0 60145 30600.00000 0 2851024.652 19154210.254 16578133.632 10 0 60145 31500.00000 0 2594522.869 21044046.288 14149703.802 10 0 60145 32400.00000 0 2527428.530 22635572.777 11445878.631 10 0 60145 33300.00000 0 2608492.087 23882378.088 8519254.437 10 0 60145 34200.00000 0 2788849.703 24749223.932 5426786.246 10 0 60145 35100.00000 0 3014325.408 25213437.085 2228672.333 10 0 60145 36000.00000 0 3227964.032 25265789.845 -1012826.538 10 0 60145 36900.00000 0 3372686.254 24910832.036 -4234609.128 10 0 60145 37800.00000 0 3393951.807 24166660.776 -7373972.029 10 0 60145 38700.00000 0 3242316.576 23064138.193 -10369838.982 10 0 60145 39600.00000 0 2875773.993 21645590.853 -13163956.149 10 0 60145 40500.00000 0 2261780.531 19963046.644 -15702029.270 10 0 60145 41400.00000 0 1378878.816 18076084.270 -17934780.092 10 0 60145 42300.00000 0 217849.257 16049386.741 -19818901.416 10 0 60145 43200.00000 0 -1217658.703 13950102.196 -21317892.515 10 0 60145 44100.00000 0 -2911042.518 11845123.054 -22402759.353 10 0 60145 45000.00000 0 -4833213.281 9798397.329 -23052566.942 10 0 60145 45900.00000 0 -6943593.894 7868383.975 -23254834.199 10 0 60145 46800.00000 0 -9191607.172 6105757.541 -23005764.764 10 0 60145 47700.00000 0 -11518592.062 4551456.618 -22310310.334 10 0 60145 48600.00000 0 -13860068.628 3235155.816 -21182066.109 10 0 60145 49500.00000 0 -16148258.126 2174223.236 -19643000.953 10 0 60145 50400.00000 0 -18314753.985 1373205.108 -17723027.783 10 0 60145 51300.00000 0 -20293233.413 823857.373 -15459422.520 10 0 60145 52200.00000 0 -22022097.608 505721.290 -12896102.617 10 0 60145 53100.00000 0 -23446931.395 387217.668 -10082778.737 10 0 60145 54000.00000 0 -24522680.552 427212.779 -7073995.541 10 0 60145 54900.00000 0 -25215456.553 576989.443 -3928079.586 10 0 60145 55800.00000 0 -25503893.835 782539.899 -706014.297 10 0 60145 56700.00000 0 -25380003.112 987083.620 2529736.661 10 0 60145 57600.00000 0 -24849485.146 1133703.784 5716435.147 10 0 60145 58500.00000 0 -23931491.733 1167991.069 8792280.318 10 0 60145 59400.00000 0 -22657843.658 1040583.075 11697603.130 10 0 60145 60300.00000 0 -21071737.937 709491.911 14376020.647 10 0 60145 61200.00000 0 -19225997.933 142121.264 16775527.876 10 0 60145 62100.00000 0 -17180938.916 -683112.811 18849506.182 10 0 60145 63000.00000 0 -15001937.625 -1775626.743 20557628.896 10 0 60145 63900.00000 0 -12756806.688 -3132029.886 21866646.650 10 0 60145 64800.00000 0 -10513082.877 -4736029.075 22751037.308 10 0 60145 65700.00000 0 -8335341.698 -6558883.214 23193507.784 10 0 60145 66600.00000 0 -6282649.907 -8560390.797 23185337.801 10 0 60145 67500.00000 0 -4406261.749 -10690371.033 22726558.493 10 0 60145 68400.00000 0 -2747654.784 -12890578.498 21825961.750 10 0 60145 69300.00000 0 -1336987.094 -15096972.798 20500939.354 10 0 60145 70200.00000 0 -192040.218 -17242249.606 18777154.138 10 0 60145 71100.00000 0 682308.141 -19258528.000 16688048.651 10 0 60145 72000.00000 0 1294059.710 -21080081.960 14274200.033 10 0 60145 72900.00000 0 1663520.969 -22646001.510 11582533.084 10 0 60145 73800.00000 0 1822202.919 -23902671.511 8665406.401 10 0 60145 74700.00000 0 1811242.456 -24805963.331 5579589.449 10 0 60145 75600.00000 0 1679413.038 -25323046.559 2385150.837 10 0 60145 76500.00000 0 1480810.011 -25433743.834 -855719.863 10 0 60145 77400.00000 0 1272309.978 -25131371.232 -4079932.764 10 0 60145 78300.00000 0 1110913.355 -24423028.597 -7224735.831 10 0 60145 79200.00000 0 1051084.188 -23329327.664 -10228945.294 10 0 60145 80100.00000 0 1142201.315 -21883569.867 -13034143.208 10 0 60145 81000.00000 0 1426229.986 -20130409.089 -15585817.991 10 0 60145 81900.00000 0 1935713.324 -18124056.409 -17834425.294 10 0 60145 82800.00000 0 2692169.135 -15926103.073 -19736348.377 10 0 60145 83700.00000 0 3704960.065 -13603053.690 -21254739.671 10 0 60145 84600.00000 0 4970684.828 -11223673.343 -22360227.818 10 0 60145 85500.00000 0 6473116.149 -8856259.618 -23031477.374 99